カタログに戻る

STARLINK-2241

運用中通信VLEO
NORAD 48586·PAYLOAD·🇺🇸 United States

打ち上げ May 15, 2021 から Cape Canaveral Space Force Station

Loading…

次のパス (今後24時間)

TLE

最新Source: CelesTrak SupGP

元期: Sep 14, 2026, 12:03 UTC

1 48586C 21041AK  26257.50256944 -.00021920  00000+0 -70534-3 0  2570
2 48586  53.1584 350.2322 0000872  84.4389   9.6952 15.31692720    17

AllMySatでSTARLINK-2241をリアルタイム追跡

Download on the App Store